This demonstration page uses our WeatherBlox Daily Observations layout. Learn more.

Left ArrowRight Arrow

38.20091, -84.87328

Hourly Observations for September 21, 2022

Temp ( °F °C ) Dew Point ( °F °C ) Humidity (%) Winds ( mph kmh ) Pressure ( in mb ) Visibility ( mi km ) Precip ( " mm )
12:53 am 00:53 Clear 66 18.9 64 17.8 93 93 Calm 29.96 1014 8 13 0.00 0.00
1:53 am 01:53 Clear 66 18.9 64 17.8 93 93 Calm 29.96 1015 10 16 0.00 0.00
5:53 am 05:53 Clear 64 17.8 63 17.2 96 96 Calm 29.97 1015 10 16 0.00 0.00
6:53 am 06:53 Clear 64 17.8 62 16.7 93 93 Calm 29.97 1015 10 16 0.00 0.00
7:53 am 07:53 Sunny 66 18.9 63 17.2 90 90 Calm 29.98 1015 10 16 0.00 0.00
8:53 am 08:53 Sunny 73 22.8 67 19.4 81 81 SSW 6 9 29.97 1015 10 16 0.00 0.00
9:53 am 09:53 Sunny 79 26.1 69 20.6 72 72 SSW 6 9 29.97 1015 10 16 0.00 0.00
10:53 am 10:53 Sunny 83 28.3 70 21.1 65 65 WSW 8 13 29.97 1015 10 16 0.00 0.00
11:53 am 11:53 Sunny 86 30 70 21.1 59 59 SW 10 17 29.96 1015 10 16 0.00 0.00
12:53 pm 12:53 Sunny 89 31.7 71 21.7 56 56 WSW 10 17 29.94 1014 10 16 0.00 0.00
1:53 pm 13:53 Sunny 92 33.3 71 21.7 51 51 W 7 11 29.92 1013 10 16 0.00 0.00
2:53 pm 14:53 Sunny 91 32.8 69 20.6 49 49 WSW 7 11 29.89 1012 10 16 0.00 0.00
3:53 pm 15:53 Mostly Sunny 93 33.9 69 20.6 46 46 SW 9 15 29.88 1012 10 16 0.00 0.00
4:53 pm 16:53 Mostly Sunny 93 33.9 67 19.4 43 43 WSW 12 19 29.86 1011 10 16 0.00 0.00
5:53 pm 17:53 Sunny 91 32.8 66 18.9 44 44 W 5 7 29.85 1011 10 16 0.00 0.00
6:53 pm 18:53 Sunny 88 31.1 68 20 52 52 WSW 7 11 29.85 1011 10 16 0.00 0.00
7:53 pm 19:53 Clear 84 28.9 67 19.4 57 57 WSW 5 7 29.85 1011 10 16 0.00 0.00
8:53 pm 20:53 Clear 79 26.1 67 19.4 67 67 SW 5 7 29.86 1011 10 16 0.00 0.00
9:53 pm 21:53 Mostly Cloudy 79 26.1 67 19.4 67 67 WSW 3 6 29.87 1011 10 16 0.00 0.00
10:53 pm 22:53 Mostly Clear 76 24.4 67 19.4 74 74 Calm 29.86 1011 10 16 0.00 0.00
11:53 pm 23:53 Mostly Clear 75 23.9 68 20 79 79 Calm 29.86 1011 10 16 0.00 0.00

Powered by AerisWeather